Location: Cointrin
(46.2167°N, 6.1167°E)
Time: 11:46:58
(UTC+00:00)

CAS-4A - Visible Passes

Search period start: 05 December 2023 00:00
Search period end: 15 December 2023 00:00
Orbit: 493 x 508 km, 43.0° (Epoch: 05 December)

Date Brightness Start Highest point End Pass type
(mag) Time Alt. Az. Time Alt. Az. Time Alt. Az.
05 Dec ? 16:28:45 10° WSW 16:32:32 53° S 16:36:18 10° ESE visible
05 Dec ? 18:08:02 10° W 18:11:33 34° SSW 18:11:47 34° S visible
06 Dec ? 17:46:09 10° W 17:49:39 33° SSW 17:51:12 24° SSE visible
07 Dec ? 17:24:14 10° W 17:27:43 32° SSW 17:30:43 13° SE visible
08 Dec ? 17:02:18 10° W 17:05:46 31° SSW 17:09:11 10° SE visible
09 Dec ? 16:40:21 10° W 16:43:46 30° SSW 16:47:11 10° SE visible
10 Dec ? 16:18:23 10° W 16:21:46 29° SSW 16:25:08 10° SE visible
